1530356400.99,32586,17.5,73286.5,17.19,-22.21,-23.09,0,*42
1530356402.25,32587,17.5,73288.8,17.19,-22.21,-22.93,0,*41
1530356403.49,32588,17.5,73288.8,17.23,-22.03,-22.73,0,*49
1530356404.75,32589,17.5,73284.8,17.23,-24.11,-25.87,0,*41
1530356405.97,32590,17.5,73288.5,17.21,-26.03,-27.03,0,*44
1530356407.2,32591,17.5,73288.0,17.21,-26.13,-27.03,0,*44
1530356408.42,32592,17.5,73286.8,17.17,-26.61,-27.35,0,*42
1530356409.62,32593,17.5,73286.8,17.17,-25.61,-26.65,0,*44
1530356410.92,32594,17.5,73290.8,17.15,-27.61,-28.63,0,*4B
1530356412.2,32595,17.5,73288.0,17.15,-23.65,-24.21,0,*40
1530356413.46,32596,17.5,73292.8,17.15,-22.21,-22.87,0,*48
1530356414.68,32597,17.5,73288.0,17.15,-23.39,-24.35,0,*4E
1530356415.94,32598,17.5,73288.3,17.15,-25.75,-26.65,0,*48
1530356417.22,32599,17.5,73288.5,17.15,-23.95,-24.67,0,*41
1530356418.5,32600,17.5,73286.5,17.15,-22.73,-23.53,0,*4B
1530356419.76,32601,17.5,73288.3,17.15,-22.57,-23.23,0,*4B
1530356421.02,32602,17.5,73290.3,17.15,-23.53,-24.35,0,*4D
1530356422.23,32603,17.5,73288.8,17.17,-23.39,-24.11,0,*44
1530356423.49,32604,17.5,73288.0,17.17,-26.29,-27.35,0,*42
1530356424.72,32605,17.5,73292.0,17.17,-24.47,-25.29,0,*46
1530356425.97,32606,17.5,73288.5,17.17,-25.97,-26.77,0,*41
1530356427.21,32607,17.5,73292.5,17.15,-24.97,-25.49,0,*4D
1530356428.41,32608,17.5,73290.0,17.13,-27.03,-27.71,0,*43
1530356429.62,32609,17.5,73292.0,17.13,-25.65,-26.39,0,*4D
1530356430.89,32610,17.5,73292.0,17.11,-24.71,-25.39,0,*40
1530356432.18,32611,17.5,73292.0,17.11,-23.29,-24.21,0,*43
1530356433.38,32612,17.5,73298.0,17.09,-24.93,-25.61,0,*4A
1530356434.62,32613,17.5,73292.8,17.11,-24.57,-25.19,0,*45
1530356435.9,32614,17.5,73294.5,17.11,-26.33,-27.19,0,*40
1530356437.13,32615,17.5,73292.5,17.09,-25.03,-25.87,0,*4D
1530356438.38,32616,17.5,73288.3,17.09,-23.33,-23.95,0,*4E
1530356439.59,32617,17.5,73288.8,17.09,-22.93,-23.59,0,*44
1530356440.84,32618,17.5,73290.3,17.13,-23.85,-24.71,0,*4B
1530356442.08,32619,17.5,73290.8,17.13,-25.49,-26.33,0,*48
1530356443.34,32620,17.5,73288.5,17.11,-25.03,-25.87,0,*42
1530356444.57,32621,17.5,73288.3,17.13,-25.39,-26.33,0,*44
1530356445.83,32622,17.5,73290.8,17.11,-22.97,-23.65,0,*40
1530356447.11,32623,17.5,73290.5,17.11,-22.21,-23.33,0,*4F
1530356448.31,32624,17.5,73288.0,17.13,-28.15,-29.23,0,*4C
1530356449.54,32625,17.5,73290.8,17.09,-28.59,-30.45,0,*46
1530356450.77,32626,17.5,73288.3,17.05,-25.87,-26.65,0,*42
1530356451.99,32627,17.5,73294.8,17.07,-23.59,-24.15,0,*41
1530356453.19,32628,17.5,73288.8,17.07,-23.79,-24.51,0,*4C
1530356454.45,32629,17.5,73290.0,17.05,-26.97,-28.37,0,*46
1530356455.67,32630,17.5,73290.3,17.05,-26.45,-27.13,0,*48
1530356456.95,32631,17.5,73292.0,17.01,-23.23,-23.85,0,*43
1530356458.22,32632,17.5,73288.8,17.05,-24.71,-25.49,0,*42
1530356459.46,32633,17.5,73292.5,17.05,-22.87,-23.33,0,*47
1530356460.74,32634,17.5,73292.0,17.05,-22.77,-23.33,0,*4F
1530356462.0,32635,17.5,73290.8,17.07,-23.33,-23.85,0,*40
1530356463.26,32636,17.5,73294.5,17.11,-22.47,-23.09,0,*42
1530356464.52,32637,17.5,73296.3,17.11,-24.11,-24.93,0,*42
1530356465.78,32638,17.5,73290.8,17.11,-25.55,-26.39,0,*4E
1530356467.07,32639,17.5,73288.3,17.11,-23.65,-24.25,0,*45
1530356468.29,32640,17.5,73294.0,17.09,-23.43,-24.11,0,*41
1530356469.59,32641,17.5,73290.5,17.11,-24.25,-24.71,0,*48
1530356470.86,32642,17.5,73290.8,17.11,-24.71,-25.23,0,*4C
1530356472.09,32643,17.5,73292.3,17.11,-23.75,-24.31,0,*4C
1530356473.35,32644,17.5,73288.0,17.13,-22.77,-23.29,0,*44
1530356474.58,32645,17.5,73292.8,17.13,-22.77,-23.39,0,*44
1530356475.84,32646,17.5,73290.8,17.15,-22.21,-22.83,0,*42
1530356477.12,32647,17.5,73286.8,17.15,-23.49,-23.99,0,*46
1530356478.32,32648,17.5,73284.3,17.17,-24.31,-24.77,0,*44
1530356479.57,32649,17.5,73292.3,17.17,-23.65,-24.15,0,*47
1530356480.81,32650,17.5,73294.5,17.17,-23.23,-23.69,0,*41
1530356482.04,32651,17.5,73290.0,17.17,-21.87,-22.37,0,*46
1530356483.26,32652,17.5,73288.0,17.19,-23.13,-23.75,0,*43
1530356484.49,32653,17.5,73284.8,17.23,-22.63,-23.39,0,*45
1530356485.72,32654,17.5,73288.5,17.23,-23.13,-23.75,0,*4C
1530356486.98,32655,17.5,73288.3,17.23,-22.47,-23.09,0,*46
1530356488.26,32656,17.5,73290.3,17.23,-29.01,-30.95,0,*4B
1530356489.5,32657,17.5,73288.0,17.21,-27.51,-28.21,0,*45
1530356490.74,32658,17.5,73278.8,17.17,-25.45,-26.13,0,*47
1530356491.94,32659,17.5,73282.0,17.17,-24.97,-25.61,0,*4E
1530356493.17,32660,17.5,73292.8,17.17,-24.11,-24.61,0,*4B
1530356494.42,32661,17.5,73288.0,17.17,-25.81,-26.77,0,*47
1530356495.7,32662,17.5,73284.0,17.15,-25.45,-26.29,0,*45
1530356496.98,32663,17.5,73286.8,17.15,-24.83,-25.45,0,*46
1530356498.25,32664,17.5,73288.8,17.13,-24.25,-25.03,0,*49
1530356499.48,32665,17.5,73290.5,17.13,-23.43,-24.15,0,*49
1530356500.73,32666,17.5,73288.5,17.13,-25.97,-26.71,0,*45
1530356501.94,32667,17.5,73286.8,17.13,-24.51,-25.19,0,*42
1530356503.16,32668,17.5,73284.3,17.13,-25.65,-25.61,0,*44
1530356504.4,32669,17.5,73288.5,17.13,-24.83,-25.49,0,*46
1530356505.63,32670,17.5,73290.0,17.11,-25.61,-26.45,0,*4E
1530356506.86,32671,17.5,73292.0,17.09,-26.61,-27.19,0,*4D
1530356508.09,32672,17.5,73288.0,17.09,-26.87,-27.35,0,*48
1530356509.31,32673,17.5,73290.8,17.07,-25.75,-25.91,0,*45
1530356510.51,32674,17.5,73290.0,17.07,-25.39,-26.23,0,*40
1530356511.73,32675,17.5,73290.3,17.07,-22.73,-23.13,0,*4E
1530356512.99,32676,17.5,73288.3,17.07,-25.75,-26.81,0,*42
1530356514.22,32677,17.5,73288.5,17.07,-24.67,-25.39,0,*41
1530356515.45,32678,17.5,73290.3,17.05,-22.93,-23.59,0,*41
1530356516.68,32679,17.5,73292.8,17.09,-26.07,-26.93,0,*46
1530356517.93,32680,17.5,73292.0,17.05,-26.33,-26.87,0,*4E
1530356519.2,32681,17.5,73292.8,17.05,-26.55,-27.45,0,*40
1530356520.43,32682,17.5,73294.0,17.01,-23.75,-24.31,0,*40
1530356521.66,32683,17.5,73292.5,17.05,-23.43,-24.05,0,*47
1530356522.94,32684,17.5,73292.8,17.05,-24.21,-24.83,0,*4D
1530356524.19,32685,17.5,73292.8,17.05,-23.99,-24.57,0,*41
1530356525.42,32686,17.5,73294.3,17.05,-25.35,-25.87,0,*4E
1530356526.64,32687,17.5,73290.8,17.05,-23.43,-23.89,0,*40
1530356527.89,32688,17.5,73292.0,17.07,-22.21,-22.73,0,*4C
1530356529.14,32689,17.5,73292.8,17.07,-23.03,-23.69,0,*46
1530356530.4,32690,17.5,73288.0,17.11,-23.95,-24.61,0,*49
1530356531.66,32691,17.5,73294.3,17.11,-24.11,-24.57,0,*46
1530356532.93,32692,17.5,73294.5,17.11,-23.49,-23.95,0,*46
1530356534.19,32693,17.5,73294.8,17.11,-24.41,-24.93,0,*49
1530356535.42,32694,17.5,73292.5,17.13,-23.85,-24.35,0,*4F
1530356536.62,32695,17.5,73292.5,17.13,-22.41,-22.57,0,*45
1530356537.85,32696,17.5,73292.8,17.15,-22.03,-21.47,0,*44
1530356539.14,32697,17.5,73294.3,17.15,-21.57,-21.87,0,*4B
1530356540.4,32698,17.5,73294.5,17.15,-24.21,-24.77,0,*4A
1530356541.68,32699,17.5,73292.0,17.15,-23.23,-23.53,0,*4F
1530356542.9,32700,17.5,73290.0,17.13,-28.15,-28.75,0,*49
1530356544.13,32701,17.5,73292.5,17.13,-27.99,-28.37,0,*45
1530356545.36,32702,17.5,73292.5,17.09,-26.07,-26.17,0,*47
1530356546.62,32703,17.5,73292.3,17.05,-25.49,-24.71,0,*41
1530356547.89,32704,17.5,73286.8,17.05,-23.69,-24.71,0,*42
1530356549.12,32705,17.5,73294.3,17.01,-23.89,-24.97,0,*41
1530356550.39,32706,17.5,73290.8,17.01,-23.03,-23.69,0,*46
1530356551.63,32707,17.5,73288.8,17.07,-22.73,-23.29,0,*43
1530356552.83,32708,17.5,73292.3,17.07,-22.37,-22.83,0,*4D
1530356554.09,32709,17.5,73294.5,17.11,-22.21,-22.53,0,*41
1530356555.36,32710,17.5,73290.5,17.11,-23.75,-24.41,0,*4C
1530356556.62,32711,17.5,73292.5,17.11,-26.17,-27.07,0,*4D
1530356557.82,32712,17.5,73290.0,17.09,-25.39,-26.07,0,*49
1530356559.05,32713,17.5,73288.5,17.09,-24.87,-25.87,0,*47
1530356560.25,32714,17.5,73290.3,17.09,-26.23,-27.07,0,*46
1530356561.48,32715,17.5,73292.3,17.07,-23.85,-24.51,0,*40
1530356562.72,32716,17.5,73288.5,17.07,-23.29,-23.53,0,*40
1530356563.95,32717,17.5,73290.8,17.07,-23.95,-24.47,0,*44
1530356565.2,32718,17.5,73290.0,17.05,-29.35,-29.79,0,*49
1530356566.48,32719,17.5,73284.8,17.05,-26.81,-27.45,0,*49
1530356567.71,32720,17.5,73284.3,17.01,-26.03,-26.87,0,*42
1530356568.93,32721,17.5,73284.5,16.99,-25.87,-26.39,0,*49
1530356570.17,32722,17.5,73288.0,17.01,-23.69,-24.31,0,*46
1530356571.45,32723,17.5,73284.8,17.01,-29.17,-30.17,0,*45
1530356572.69,32724,17.5,73284.5,16.97,-29.61,-30.33,0,*4B
1530356573.9,32725,17.5,73286.5,16.91,-24.57,-25.09,0,*49
1530356575.12,32726,17.5,73290.0,16.95,-22.87,-23.33,0,*4A
1530356576.38,32727,17.5,73290.8,16.97,-22.73,-23.43,0,*45
1530356577.65,32728,17.5,73286.0,16.97,-23.33,-24.15,0,*4B
1530356578.92,32729,17.5,73286.0,16.97,-24.31,-24.83,0,*40
1530356580.17,32730,17.5,73284.3,16.97,-24.15,-24.61,0,*42
1530356581.41,32731,17.5,73286.5,16.99,-23.69,-24.15,0,*42
1530356582.63,32732,17.5,73288.0,17.01,-23.89,-24.35,0,*4D
1530356583.88,32733,17.5,73284.0,17.01,-23.53,-24.57,0,*4F
1530356585.14,32734,17.5,73282.5,17.01,-24.41,-24.97,0,*40
1530356586.39,32735,17.5,73286.5,17.01,-22.87,-23.23,0,*45
1530356587.61,32736,17.5,73288.8,17.07,-23.85,-24.31,0,*47
1530356588.86,32737,17.5,73288.3,17.07,-22.73,-23.19,0,*43
1530356590.11,32738,17.5,73290.0,17.07,-23.03,-23.53,0,*44
1530356591.36,32739,17.5,73286.0,17.09,-23.23,-23.65,0,*4C
1530356592.59,32740,17.5,73286.3,17.11,-24.61,-25.35,0,*49
1530356593.85,32741,17.5,73284.3,17.11,-25.39,-26.17,0,*47
1530356595.06,32742,17.5,73288.8,17.09,-26.45,-27.07,0,*45
1530356596.3,32743,17.5,73288.3,17.05,-24.51,-25.49,0,*47
1530356597.58,32744,17.5,73286.8,17.05,-26.33,-27.19,0,*41
1530356598.83,32745,17.5,73282.8,17.05,-24.57,-25.29,0,*41
1530356600.09,32746,17.5,73284.8,17.05,-24.51,-24.87,0,*41
1530356601.37,32747,17.5,73290.8,17.05,-24.15,-24.83,0,*44
1530356602.65,32748,17.5,73288.3,17.05,-24.21,-24.83,0,*4C
1530356603.91,32749,17.5,73286.8,17.05,-24.87,-25.65,0,*48
1530356605.14,32750,17.5,73286.5,17.09,-24.11,-24.77,0,*41
1530356606.39,32751,17.5,73286.0,17.05,-25.35,-25.97,0,*44
1530356607.64,32752,17.5,73286.8,17.05,-23.19,-23.75,0,*45
1530356608.85,32753,17.5,73286.5,17.07,-22.67,-23.13,0,*4E
1530356610.08,32754,17.5,73288.0,17.07,-24.25,-24.97,0,*42
1530356611.33,32755,17.5,73288.0,17.07,-23.29,-23.65,0,*42
1530356612.53,32756,17.5,73284.5,17.09,-23.13,-23.59,0,*49
1530356613.75,32757,17.5,73284.5,17.11,-25.35,-25.87,0,*46
1530356614.99,32758,17.5,73286.3,17.09,-23.23,-23.75,0,*4A
1530356616.26,32759,17.5,73288.3,17.11,-23.23,-24.11,0,*47
1530356617.52,32760,17.5,73288.5,17.11,-26.03,-26.93,0,*42
1530356618.75,32761,17.5,73288.8,17.09,-26.07,-26.71,0,*42
1530356620.0,32762,17.5,73290.5,17.09,-25.45,-26.17,0,*44
1530356621.23,32763,17.5,73290.5,17.09,-25.61,-26.33,0,*45
1530356622.49,32764,17.5,73284.0,17.09,-25.71,-26.71,0,*45
1530356623.71,32765,17.5,73286.3,17.09,-26.61,-27.45,0,*40
1530356624.95,32766,17.5,73286.3,17.05,-26.49,-27.29,0,*4F
1530356626.2,32767,17.5,73284.8,17.01,-25.65,-26.17,0,*4B
1530356627.45,32768,17.5,73284.8,17.01,-23.75,-24.15,0,*43
1530356628.69,32769,17.5,73284.8,17.01,-23.53,-24.35,0,*44
1530356629.94,32770,17.5,73288.5,17.05,-23.33,-23.59,0,*43
1530356631.17,32771,17.5,73290.0,17.05,-23.75,-23.89,0,*4D
1530356632.42,32772,17.5,73288.3,17.07,-23.33,-22.73,0,*4A
1530356633.63,32773,17.5,73294.5,17.07,-22.57,-21.47,0,*4C
1530356634.85,32774,17.5,73294.0,17.09,-25.03,-24.05,0,*40
1530356636.09,32775,17.5,73288.8,17.09,-24.47,-23.65,0,*41
1530356637.37,32776,17.5,73290.0,17.05,-26.81,-27.19,0,*49
1530356638.65,32777,17.5,73288.5,17.05,-25.71,-26.17,0,*4B
1530356639.89,32778,17.5,73288.5,17.01,-23.69,-24.05,0,*4E
1530356641.15,32779,17.5,73286.3,17.01,-23.03,-23.43,0,*46
1530356642.42,32780,17.5,73286.5,17.05,-23.23,-23.69,0,*4E
1530356643.62,32781,17.5,73286.0,17.07,-25.91,-25.39,0,*41
1530356644.9,32782,17.5,73284.5,17.05,-28.63,-29.01,0,*47
1530356646.14,32783,17.5,73282.8,16.99,-29.57,-30.01,0,*4C
1530356647.36,32784,17.5,73284.3,16.95,-28.15,-28.79,0,*46
1530356648.61,32785,17.5,73280.8,16.91,-28.05,-28.75,0,*4E
1530356649.87,32786,17.5,73278.5,16.93,-25.49,-26.13,0,*44
1530356651.08,32787,17.5,73280.8,16.91,-25.49,-26.39,0,*4F
1530356652.34,32788,17.5,73284.8,16.91,-26.55,-27.35,0,*43
1530356653.62,32789,17.5,73282.0,16.89,-23.29,-23.95,0,*4B
1530356654.85,32790,17.5,73282.5,16.93,-23.09,-23.59,0,*4A
1530356656.08,32791,17.5,73282.0,16.91,-22.93,-23.65,0,*44
1530356657.31,32792,17.5,73280.5,16.95,-23.49,-24.31,0,*43
1530356658.56,32793,17.5,73286.3,16.95,-26.77,-27.83,0,*40
1530356659.8,32794,17.5,73284.8,16.91,-25.55,-26.49,0,*47
1530356661.06,32795,17.5,73282.8,16.91,-24.21,-25.03,0,*49
1530356662.29,32796,17.5,73282.5,16.93,-24.97,-25.87,0,*49
1530356663.54,32797,17.5,73278.5,16.93,-25.97,-26.87,0,*4A
1530356664.78,32798,17.5,73282.0,16.91,-24.87,-25.65,0,*48
1530356666.04,32799,17.5,73286.3,16.91,-24.41,-25.03,0,*43
1530356667.25,32800,17.5,73284.8,16.91,-22.41,-22.97,0,*40
1530356668.5,32801,17.5,73290.3,16.93,-27.51,-28.63,0,*46
1530356669.76,32802,17.5,73290.5,16.91,-28.59,-29.73,0,*40
1530356671.03,32803,17.5,73286.8,16.85,-29.57,-30.73,0,*43
1530356672.26,32804,17.5,73290.5,16.83,-27.99,-28.85,0,*4E
1530356673.51,32805,17.5,73286.8,16.77,-30.23,-31.39,0,*4C
1530356674.72,32806,17.5,73286.5,16.73,-29.57,-30.23,0,*4A
1530356675.95,32807,17.5,73284.3,16.69,-28.25,-29.23,0,*4C
1530356677.16,32808,17.5,73282.3,16.69,-29.57,-30.33,0,*4E
1530356678.4,32809,17.5,73284.0,16.65,-29.01,-29.83,0,*43
1530356679.63,32810,17.5,73290.3,16.63,-27.03,-27.51,0,*40
1530356680.88,32811,17.5,73288.8,16.63,-25.19,-25.71,0,*48
1530356682.11,32812,17.5,73286.8,16.65,-26.29,-27.13,0,*4B
1530356683.38,32813,17.5,73288.0,16.63,-29.39,-30.67,0,*47
1530356684.58,32814,17.5,73290.0,16.61,-27.03,-27.51,0,*46
1530356685.82,32815,17.5,73286.8,16.59,-30.83,-31.79,0,*4F
1530356687.07,32816,17.5,73288.5,16.51,-28.43,-29.07,0,*41
1530356688.33,32817,17.5,73278.0,16.51,-28.05,-28.69,0,*4B
1530356689.62,32818,17.5,73282.3,16.51,-26.29,-26.81,0,*4C
1530356690.91,32819,17.5,73282.5,16.51,-25.97,-26.55,0,*42
1530356692.18,32820,17.5,73278.8,16.51,-25.03,-25.39,0,*4C
1530356693.42,32821,17.5,73282.5,16.51,-25.23,-26.03,0,*45
1530356694.68,32822,17.56,73282.8,16.51,-24.67,-25.35,0,*41
1530356695.91,32823,17.5,73278.5,16.55,-25.09,-25.49,0,*46
1530356697.14,32824,17.5,73278.5,16.53,-23.03,-23.39,0,*4A
1530356698.37,32825,17.5,73278.0,16.55,-25.09,-25.35,0,*4B
1530356699.63,32826,17.5,73276.0,16.59,-23.13,-23.49,0,*44
1530356700.89,32827,17.56,73278.0,16.59,-22.77,-23.79,0,*45
1530356702.12,32828,17.5,73276.3,16.61,-23.43,-24.83,0,*45
1530356703.39,32829,17.5,73282.3,16.63,-24.51,-25.71,0,*4E
1530356704.63,32830,17.5,73278.0,16.61,-22.73,-24.11,0,*45
1530356705.89,32831,17.56,73278.0,16.63,-22.87,-24.25,0,*4A
1530356707.11,32832,17.5,73280.0,16.63,-25.35,-27.03,0,*40
1530356708.32,32833,17.5,73286.5,16.61,-23.75,-24.97,0,*4F
1530356709.58,32834,17.5,73280.5,16.63,-24.11,-25.23,0,*41
1530356710.81,32835,17.5,73286.8,16.61,-24.11,-25.09,0,*4A
1530356712.09,32836,17.5,73284.3,16.63,-21.97,-22.77,0,*4E
1530356713.32,32837,17.5,73280.5,16.65,-23.65,-24.77,0,*40
1530356714.56,32838,17.5,73278.3,16.65,-26.77,-27.67,0,*4B
1530356715.81,32839,17.5,73278.8,16.65,-26.29,-27.35,0,*46
1530356717.04,32840,17.5,73294.8,16.63,-24.97,-25.87,0,*42
1530356718.27,32841,17.56,73294.0,16.61,-23.89,-24.71,0,*41
1530356719.5,32842,17.56,73292.3,16.63,-23.09,-23.89,0,*48
1530356720.75,32843,17.5,73288.3,16.67,-25.39,-26.55,0,*4C
1530356721.99,32844,17.56,73288.8,16.61,-27.83,-28.75,0,*42
1530356723.2,32845,17.5,73284.8,16.61,-27.55,-28.37,0,*4E
1530356724.43,32846,17.5,73284.0,16.61,-25.97,-26.65,0,*48
1530356725.66,32847,17.5,73282.8,16.61,-23.59,-24.21,0,*4F
1530356726.89,32848,17.5,73284.8,16.61,-24.67,-25.19,0,*40
1530356728.15,32849,17.56,73288.0,16.63,-23.75,-24.25,0,*49
1530356729.42,32850,17.5,73290.3,16.63,-24.83,-25.49,0,*44
1530356730.67,32851,17.5,73290.8,16.63,-26.13,-26.87,0,*4F
1530356731.9,32852,17.5,73292.0,16.61,-26.49,-27.23,0,*4E
1530356733.11,32853,17.56,73294.0,16.61,-25.49,-25.19,0,*47
1530356734.34,32854,17.56,73292.0,16.61,-26.17,-24.51,0,*45
1530356735.61,32855,17.5,73290.3,16.63,-23.69,-20.83,0,*41
1530356736.86,32856,17.5,73290.5,16.61,-23.85,-21.53,0,*4E
1530356738.12,32857,17.5,73286.8,16.61,-23.53,-23.29,0,*4B
1530356739.34,32858,17.5,73286.5,16.61,-22.47,-23.39,0,*41
1530356740.61,32859,17.5,73290.8,16.61,-21.23,-22.47,0,*49
1530356741.86,32860,17.5,73292.5,16.63,-21.97,-23.59,0,*40
1530356743.08,32861,17.5,73288.5,16.61,-24.57,-26.55,0,*43
1530356744.31,32862,17.5,73286.3,16.61,-27.23,-28.85,0,*43
1530356745.55,32863,17.56,73288.3,16.61,-26.39,-27.35,0,*4C
1530356746.78,32864,17.56,73290.3,16.59,-24.57,-25.23,0,*4F
1530356748.04,32865,17.56,73290.3,16.59,-23.59,-23.95,0,*4C
1530356749.32,32866,17.5,73288.0,16.59,-23.65,-24.25,0,*4C
1530356750.55,32867,17.5,73286.5,16.59,-26.87,-27.55,0,*40
1530356751.79,32868,17.5,73288.3,16.59,-27.03,-27.71,0,*44
1530356753.02,32869,17.56,73292.5,16.55,-25.49,-26.07,0,*45
1530356754.3,32870,17.56,73292.5,16.59,-24.87,-25.29,0,*4D
1530356755.56,32871,17.5,73294.8,16.59,-23.59,-23.95,0,*49
1530356756.82,32872,17.5,73288.5,16.61,-24.41,-24.71,0,*42
1530356758.06,32873,17.56,73290.8,16.63,-23.13,-23.43,0,*47
1530356759.32,32874,17.56,73286.0,16.63,-24.25,-24.97,0,*4C
1530356760.59,32875,17.56,73284.8,16.63,-29.17,-29.73,0,*46
1530356761.8,32876,17.5,73284.8,16.61,-26.39,-27.03,0,*4D
1530356763.03,32877,17.5,73286.8,16.59,-25.91,-26.23,0,*45
1530356764.29,32878,17.56,73290.3,16.59,-25.55,-26.07,0,*44
1530356765.52,32879,17.56,73292.3,16.59,-24.93,-25.23,0,*4B
1530356766.78,32880,17.5,73286.5,16.59,-24.15,-24.47,0,*40
1530356768.03,32881,17.56,73288.5,16.59,-25.09,-25.45,0,*4E
1530356769.26,32882,17.56,73286.8,16.61,-25.03,-25.39,0,*47
1530356770.5,32883,17.5,73284.0,16.61,-24.41,-24.97,0,*44
1530356771.73,32884,17.5,73284.5,16.61,-24.57,-25.03,0,*48
1530356772.96,32885,17.5,73284.3,16.63,-26.49,-27.13,0,*45
1530356774.22,32886,17.5,73280.8,16.61,-24.83,-25.03,0,*43
1530356775.44,32887,17.5,73284.8,16.63,-22.41,-22.87,0,*43
1530356776.67,32888,17.5,73282.0,16.65,-22.67,-23.23,0,*41
1530356777.89,32889,17.56,73280.8,16.65,-26.49,-27.29,0,*46
1530356779.09,32890,17.5,73280.8,16.65,-26.07,-26.49,0,*43
1530356780.32,32891,17.5,73282.8,16.65,-24.21,-24.51,0,*4F
1530356781.55,32892,17.5,73282.5,16.65,-21.87,-22.37,0,*43
1530356782.81,32893,17.5,73280.8,16.67,-26.93,-27.77,0,*43
1530356784.07,32894,17.56,73284.0,16.67,-25.09,-25.55,0,*46
1530356785.35,32895,17.5,73280.5,16.67,-24.71,-25.39,0,*43
1530356786.57,32896,17.56,73284.5,16.65,-27.19,-27.93,0,*4D
1530356787.82,32897,17.56,73290.8,16.65,-23.99,-24.67,0,*48
1530356789.05,32898,17.56,73290.0,16.65,-23.99,-24.47,0,*45
1530356790.31,32899,17.56,73288.0,16.67,-25.29,-26.07,0,*4D
1530356791.58,32900,17.5,73288.0,16.67,-24.71,-25.13,0,*46
1530356792.81,32901,17.56,73292.8,16.65,-23.85,-24.05,0,*4F
1530356794.07,32902,17.56,73292.3,16.67,-22.47,-22.53,0,*44
1530356795.29,32903,17.56,73292.5,16.69,-25.09,-24.67,0,*47
1530356796.49,32904,17.5,73284.0,16.69,-22.03,-20.29,0,*43
1530356797.74,32905,17.56,73290.3,16.69,-19.65,-18.59,0,*46
1530356799.0,32906,17.56,73288.8,16.71,-23.95,-25.19,0,*40
1530356800.2,32907,17.5,73290.5,16.69,-23.89,-23.59,0,*47
1530356801.4,32908,17.5,73290.8,16.65,-25.91,-27.77,0,*43
1530356802.63,32909,17.56,73288.0,16.63,-24.57,-25.87,0,*42
1530356803.83,32910,17.5,73286.8,16.61,-27.03,-28.15,0,*4C
1530356805.12,32911,17.56,73282.0,16.55,-27.61,-27.83,0,*4E
1530356806.38,32912,17.56,73282.5,16.55,-21.57,-20.69,0,*4D
1530356807.64,32913,17.56,73284.8,16.55,-14.43,-15.07,0,*41
1530356808.89,32914,17.5,73276.0,16.59,-22.21,-26.23,0,*4D
1530356810.18,32915,17.56,73268.5,16.59,-23.29,-24.25,0,*41
1530356811.44,32916,17.56,73270.0,16.59,-23.59,-22.77,0,*44
1530356812.7,32917,17.5,73268.0,16.59,-23.33,-20.93,0,*41
1530356813.99,32918,17.5,73272.5,16.59,-21.53,-20.79,0,*4E
1530356815.26,32919,17.56,73276.0,16.55,-24.21,-24.77,0,*49
1530356816.5,32920,17.5,73274.5,16.53,-23.69,-25.45,0,*4E
1530356817.77,32921,17.56,73280.0,16.55,-23.33,-25.61,0,*40
1530356819.01,32922,17.56,73282.8,16.51,-23.13,-25.13,0,*40
1530356820.26,32923,17.56,73282.3,16.55,-22.41,-23.65,0,*44
1530356821.52,32924,17.5,73278.5,16.59,-23.29,-24.77,0,*44
1530356822.79,32925,17.56,73286.8,16.55,-23.03,-24.15,0,*45
1530356824.05,32926,17.56,73284.8,16.59,-22.77,-23.59,0,*47
1530356825.26,32927,17.56,73284.3,16.61,-22.41,-23.09,0,*4D
1530356826.45,32928,17.56,73284.8,16.65,-22.07,-22.41,0,*49
1530356827.66,32929,17.56,73286.5,16.65,-21.77,-22.27,0,*4C
1530356828.91,32930,17.56,73284.8,16.67,-22.97,-23.65,0,*4C
1530356830.14,32931,17.56,73288.0,16.67,-26.23,-26.87,0,*4F
1530356831.4,32932,17.56,73286.5,16.65,-26.17,-26.81,0,*4F
1530356832.66,32933,17.56,73284.0,16.65,-24.41,-25.03,0,*46
1530356833.92,32934,17.56,73284.0,16.65,-26.81,-27.45,0,*4F
1530356835.15,32935,17.56,73280.8,16.65,-23.99,-24.35,0,*46
1530356836.39,32936,17.56,73280.0,16.65,-23.33,-23.69,0,*4B
1530356837.68,32937,17.56,73286.0,16.67,-22.47,-22.21,0,*47
1530356838.88,32938,17.56,73286.0,16.69,-20.69,-17.49,0,*40
1530356840.17,32939,17.56,73282.0,16.71,-22.47,-23.85,0,*41
1530356841.39,32940,17.56,73280.0,16.69,-25.09,-26.81,0,*4A
1530356842.62,32941,17.56,73282.0,16.69,-23.29,-24.57,0,*46
1530356843.83,32942,17.56,73284.8,16.69,-22.41,-23.43,0,*48
1530356845.06,32943,17.56,73284.3,16.71,-23.75,-24.57,0,*44
1530356846.31,32944,17.5,73280.0,16.71,-24.05,-24.67,0,*40
1530356847.55,32945,17.56,73284.3,16.69,-30.11,-30.61,0,*4B
1530356848.78,32946,17.56,73282.8,16.65,-25.97,-25.91,0,*45
1530356850.02,32947,17.5,73282.3,16.67,-23.75,-22.37,0,*47
1530356851.27,32948,17.56,73282.5,16.65,-23.49,-23.99,0,*40
1530356852.47,32949,17.56,73284.3,16.65,-28.69,-29.67,0,*43
1530356853.7,32950,17.56,73280.0,16.61,-25.97,-26.65,0,*4E
1530356854.94,32951,17.56,73280.0,16.61,-25.09,-25.55,0,*48
1530356856.17,32952,17.56,73274.3,16.61,-24.41,-24.51,0,*43
1530356857.4,32953,17.56,73276.0,16.61,-18.59,-17.49,0,*4D
1530356858.63,32954,17.56,73282.5,16.61,-13.87,-12.47,0,*49
1530356859.89,32955,17.56,73284.5,16.59,-11.37,-14.65,0,*4C
1530356861.14,32956,17.56,73280.8,16.59,-8.59,-12.15,0,*7E
1530356862.41,32957,17.56,73278.5,16.63,-7.65,-7.77,0,*46
1530356863.61,32958,17.56,73282.8,16.61,-8.41,-10.09,0,*7D
1530356864.84,32959,17.56,73280.3,16.61,-8.07,-10.57,0,*75
1530356866.04,32960,17.5,73272.3,16.61,-8.21,-10.19,0,*71
1530356867.3,32961,17.56,73278.0,16.55,-9.19,-12.79,0,*79
1530356868.58,32962,17.56,73284.3,16.55,-11.85,-16.27,0,*49
1530356869.84,32963,17.56,73280.0,16.53,-14.05,-18.93,0,*42
1530356871.05,32964,17.56,73282.0,16.49,-19.37,-25.87,0,*49
1530356872.34,32965,17.56,73280.8,16.47,-21.83,-27.35,0,*49
1530356873.6,32966,17.56,73282.0,16.43,-21.23,-26.13,0,*41
1530356874.86,32967,17.56,73280.8,16.45,-25.29,-28.43,0,*43
1530356876.09,32968,17.56,73286.3,16.45,-23.23,-25.13,0,*48
1530356877.35,32969,17.56,73286.8,16.45,-23.03,-24.67,0,*49
1530356878.58,32970,17.56,73288.8,16.45,-24.51,-25.49,0,*4C
1530356879.83,32971,17.56,73286.8,16.45,-23.85,-24.67,0,*4E
1530356881.07,32972,17.56,73290.0,16.47,-22.97,-23.79,0,*45
1530356882.31,32973,17.56,73290.8,16.49,-26.33,-27.29,0,*41
1530356883.55,32974,17.56,73292.8,16.49,-24.41,-25.23,0,*49
1530356884.78,32975,17.56,73286.8,16.49,-23.85,-24.35,0,*41
1530356886.01,32976,17.56,73288.5,16.49,-23.23,-23.75,0,*4D
1530356887.28,32977,17.56,73284.5,16.51,-25.13,-25.81,0,*4D
1530356888.47,32978,17.56,73290.0,16.53,-23.89,-24.35,0,*4B
1530356889.76,32979,17.56,73292.0,16.51,-23.53,-23.99,0,*4E
1530356890.97,32980,17.56,73290.3,16.53,-23.09,-23.59,0,*49
1530356892.23,32981,17.56,73292.5,16.59,-23.19,-23.59,0,*43
1530356893.48,32982,17.56,73288.8,16.59,-24.57,-24.41,0,*43
1530356894.75,32983,17.56,73290.8,16.59,-21.97,-20.73,0,*4E
1530356895.98,32984,17.56,73292.5,16.61,-21.47,-22.31,0,*4B
1530356897.21,32985,17.56,73292.3,16.63,-22.93,-24.05,0,*43
1530356898.42,32986,17.56,73292.0,16.61,-22.57,-23.43,0,*4F
1530356899.63,32987,17.56,73292.8,16.61,-24.05,-24.57,0,*4D
1530356900.86,32988,17.56,73292.5,16.65,-24.67,-25.65,0,*42
1530356902.12,32989,17.56,73292.8,16.63,-26.97,-27.89,0,*48
1530356903.33,32990,17.56,73290.5,16.61,-25.09,-25.49,0,*48